Regional Weather Roundup
Issued by NWS

Home | Current Version | Previous Version | Graphics & Text | Print | Product List | Glossary On
Versions: 1 2 3 4 5 6 7 8 9 10 11 12 13 14 15 16 17 18 19 20 21 22 23 24 25 26 27 28 29 30 31 32 33 34 35 36 37 38 39 40 41 42 43 44 45 46 47 48 49 50
386
ASUS43 KDTX 250101
RWRMI
MICHIGAN HOURLY REGIONAL WEATHER ROUNDUP
NATIONAL WEATHER SERVICE DETROIT/PONTIAC MI
900 PM EDT FRI MAR 24 2017

NOTE: "FAIR" INDICATES FEW OR NO CLOUDS BELOW 12,000 FEET WITH NO
SIGNIFICANT WEATHER AND/OR OBSTRUCTION TO VISIBILITY.

MIZ047>049-052>055-059>063-066>070-074>076-081>083-250200-
SOUTHEAST LOWER MICHIGAN

CITY           SKY/WX    TMP DP  RH WIND       PRES   REMARKS
ADRIAN         PTCLDY    66  54  65 W12G20    30.01R
ALMA           CLOUDY    44  39  85 E14       30.07R
ANN ARBOR      MOCLDY    69  55  60 S13G22    29.97R
BAD AXE        CLOUDY    36  34  91 NE14G20   30.10R FOG     WCI  27
CARO           PTCLDY    39  36  87 N10       30.09R WCI  32
DETROIT CITY   CLOUDY    53  42  66 E8        29.99R
DETROIT        CLOUDY    71  54  54 SW24G31   29.98R
FLINT          CLOUDY    49  40  71 NE20      30.03R
GROSSE ILE     PTCLDY    68  54  59 SW10      29.97R
HILLSDALE      PTCLDY    64  52  63 SW14G22   30.00R
HOWELL         MOCLDY    60  50  70 N5        29.98R

CITY           SKY/WX    TMP DP  RH WIND       PRES   REMARKS
JACKSON          N/A     69  54  58 SW17G25   29.98R
LAMBERTVILLE   CLEAR     71  54  54 SW8G16    30.00R
LANSING        CLOUDY    51  40  65 N20G28    30.03R
LAPEER         FAIR      44  37  74 NE6       30.04R
MASON          CLOUDY    62  53  70 N5        29.97R
MONROE         CLOUDY    68  56  65 MISG      29.98R
MT. CLEMENS    MOCLDY    46  38  74 N14       30.01R
PONTIAC        TSTM      59  50  72 SE3       29.97R
PORT HOPE        N/A     35  34  96 N5        30.10R WCI  31
PORT HURON     PTCLDY    39  34  81 N9G16     30.04R WCI  33
TRI CITIES     MOCLDY    39  36  89 NE15      30.09R WCI  31
MIDLAND        CLOUDY    41  35  80 E8        30.07R
TROY           CLOUDY    55  40  56 NE12      30.02R
SAGINAW HB     CLOUDY    37  32  81 NE18G24   30.10R WCI  27
$$
MIZ043>046-050>051-056>058-064>065-071>073-077>080-250200-
SOUTHWEST LOWER MICHIGAN

CITY           SKY/WX    TMP DP  RH WIND       PRES   REMARKS
BATTLE CREEK   CLOUDY    67  57  70 SW14      29.98R
BENTON HARBOR  CLOUDY    48  39  71 N7        30.01R
BIG RAPIDS     PTCLDY    43  35  75 NE5       30.04R
COLDWATER      MOCLDY    67  52  58 SW14G20   30.00R
FREMONT        FAIR      48  36  64 N7        30.02R
HOLLAND        CLOUDY    55  45  68 NE5       30.00R
GRAND RAPIDS   CLOUDY    58  46  64 NE8       30.00R
IONIA          MOCLDY    52  42  68 NE16G26   30.02R
KALAMAZOO      CLOUDY    70  52  52 SW9       29.98R
LUDINGTON      DRIZZLE   38  37  99 NE5       30.06R WCI  34
MARSHALL       CLOUDY    70  55  59 SW16G24   29.97R
MOUNT PLEASANT CLOUDY    45  38  77 N8        30.06R
MUSKEGON       CLOUDY    53  40  61 NE9       30.00R
SOUTH HAVEN    RAIN      49  42  75 N5        29.99S
$$
MIZ016>042-250200-
NORTHERN LOWER MICHIGAN

CITY           SKY/WX    TMP DP  RH WIND       PRES   REMARKS
ALPENA         LGT RAIN  34  34 100 N8        30.14R WCI  27
BEAVER ISLAND  CLOUDY    34  34  99 CALM      30.16R
BELLAIRE       MIX PCPN  35  33  94 N6        30.13R WCI  30
CADILLAC       RAIN      35  34  96 NE7       30.05S WCI  29
CHARLEVOIX     CLOUDY    34  34 100 NE6       30.17R WCI  29
FRANKFORT      LGT RAIN  35  33  90 NE7       30.10R WCI  29
GAYLORD        LGT RAIN  35  30  82 VRB7      30.10R WCI  29
GRAYLING       LGT RAIN  34  34 100 VRB6      30.10R WCI  29
HARBOR SPRINGS CLOUDY    34  33  98 NE6       30.14R WCI  29
HOUGHTON LAKE  LGT RAIN  36  34  92 NE8       30.07R WCI  30
MANISTEE       RAIN      37  35  92 NE5       30.07R WCI  33
OSCODA         LGT SNOW  36  34  94 NE8       30.10S WCI  29
PELLSTON       CLOUDY    34  32  92 N5        30.16R WCI  30
ROGERS CITY    CLOUDY    34  33  95 CALM        N/A
TRAVERSE CITY  LGT RAIN  35  34  96 N9        30.10R FOG     WCI  28
$$
MIZ007>008-015-250200-
EASTERN UPPER MICHIGAN

CITY           SKY/WX    TMP DP  RH WIND       PRES   REMARKS
KINROSS        CLOUDY    33  32  96 N6        30.16R FOG     WCI  28
MACKINAC ISLAN CLOUDY    33  33 100 N5        30.15R FOG     WCI  28
NEWBERRY       CLOUDY    33  32  98 N6        30.16R WCI  27
S. S. MARIE    CLOUDY    38  32  79 NE7       30.16R WCI  33
MUNISING         N/A     34  32  92 N3        30.19R
$$
MIZ004>006-011>014-085-250200-
CENTRAL UPPER MICHIGAN

CITY           SKY/WX    TMP DP  RH WIND       PRES   REMARKS
MANISTIQUE     CLOUDY    34  32  93 N7        30.16R WCI  28
ESCANABA       CLOUDY    36  34  92 N8        30.17R WCI  30
MENOMINEE        N/A    N/A N/A N/A MISG        N/A
SAWYER-GWINN   CLOUDY    32  32 100 N9        30.18R FOG     WCI  24
$$
MIZ001>003-009>011-084-250200-
WESTERN UPPER MICHIGAN

CITY           SKY/WX    TMP DP  RH WIND       PRES   REMARKS
IRON MOUNTAIN  CLOUDY    35  30  82 N7        30.14S WCI  29
HOUGHTON       CLOUDY    34  29  82 NE10      30.20R WCI  26
COPPER HARBOR    N/A     35  30  82 E9        30.25R WCI  28
IRONWOOD       CLOUDY    34  31  88 E8        30.19R WCI  27
$$

ABBREVIATIONS USED IN REMARKS
   TC - TEMPERATURE IN CELSIUS
  WCI - WIND CHILL INDEX
   HX - HEAT INDEX
  VSB - VISIBILITY





USA.gov is the U.S. government's official web portal to all federal, state and local government web resources and services.